This is the latest recevied weather packets stored in our database for station/object KD7AWQ. If no packets are shown the sender has not sent any weather packets the latest 10 day(s).
| Time | Temp. | Humidity | Pressure | Rain* | Wind** | Luminosity | Snow |
|---|---|---|---|---|---|---|---|
| 1788267509 | 18.89° C | 68% | 1188.9 hPa | 0 mm | - | 6 W/m² | - |
| 1788267208 | 18.33° C | 68% | 1188.9 hPa | 0 mm | - | 3 W/m² | - |
| 1788266903 | 18.33° C | 69% | 1188.7 hPa | 0 mm | - | 1 W/m² | - |
| 1788266599 | 18.33° C | 69% | 1188.8 hPa | 0 mm | - | 1 W/m² | - |
| 1788266298 | 18.89° C | 68% | 1188.7 hPa | 0 mm | - | 0 W/m² | - |
| 1788265993 | 19.44° C | 66% | 1189 hPa | 0 mm | - | 0 W/m² | - |
| 1788265692 | 19.44° C | 65% | 1188.7 hPa | 0 mm | - | 0 W/m² | - |
| 1788265386 | 20° C | 63% | 1188.8 hPa | 0 mm | - | 0 W/m² | - |
| 1788265085 | 20° C | 62% | 1188.8 hPa | 0 mm | - | 0 W/m² | - |
| 1788264797 | 20° C | 59% | 1188.9 hPa | 0 mm | - | 0 W/m² | - |
| 1788264475 | 20° C | 61% | 1188.7 hPa | 0 mm | - | 0 W/m² | - |
| 1788264169 | 21.11° C | 60% | 1188.7 hPa | 0 mm | - | 0 W/m² | - |
| 1788263865 | 21.11° C | 59% | 1188.8 hPa | 0 mm | - | 0 W/m² | - |
| 1788263561 | 21.11° C | 59% | 1188.3 hPa | 0 mm | - | 0 W/m² | - |
| 1788263258 | 21.11° C | 59% | 1188.3 hPa | 0 mm | - | 0 W/m² | - |
| 1788262953 | 21.11° C | 58% | 1188.6 hPa | 0 mm | - | 0 W/m² | - |
| 1788262651 | 20.56° C | 59% | 1188.6 hPa | 0 mm | - | 0 W/m² | - |
| 1788262346 | 21.11° C | 59% | 1188.6 hPa | 0 mm | - | 0 W/m² | - |
| 1788262046 | 21.11° C | 59% | 1188.3 hPa | 0 mm | - | 0 W/m² | - |
| 1788261741 | 21.11° C | 59% | 1188.4 hPa | 0 mm | - | 0 W/m² | - |
| 1788261441 | 21.11° C | 59% | 1188.6 hPa | 0 mm | - | 0 W/m² | - |
| 1788261140 | 20.56° C | 59% | 1188.6 hPa | 0 mm | - | 0 W/m² | - |
| 1788260834 | 20° C | 61% | 1188.7 hPa | 0 mm | - | 0 W/m² | - |
| 1788260529 | 20° C | 62% | 1188.4 hPa | 0 mm | - | 0 W/m² | - |
| 1788260226 | 20° C | 62% | 1188.4 hPa | 0 mm | - | 0 W/m² | - |
* Rain latest hour (hover to see other rain measurements)
** Current wind speed in m/s (hover to see current wind gust speed)